Dewpoint
36 35 34 34 34 33 34 33 34 35 33 33 34 35 36 37 37 36 36 36 37 36
32 34 35 34 34 35 33 33 35 34 34 33 33 34 36 35 35 36 35 35 35 35
32 32 34 34 33 34 33 33 35 35 34 34 33 34 35 36 35 35 35 34 35 35
31 31 31 31 32 33 34 34 33 33 33 33 33 32 33 33 33 34 34 35 36 36
31 32 31 30 30 31 32 33 32 32 32 32 33 32 32 32 29 32 34 34 35 36
31 31 31 30 30 30 30 31 31 32 32 31 32 32 31 31 32 33 33 34 35 37
31 32 32 31 30 29 28 29 29 30 30 31 31 31 31 32 33 33 33 35 37 38
31 32 31 31 30 28 28 27 28 28 29 31 31 29 33 34 34 35 35 37 38 40
31 31 31 31 29 28 29 26 27 26 27 30 27 35 39 37 36 36 37 38 38 37
30 31 30 29 29 30 29 26 27 27 27 29 30 38 39 39 35 36 37 38 37 35
29 30 29 29 29 28 27 28 27 27 28 30 31 38 39 38 35 37 38 38 38 38
29 30 29 29 29 28 27 28 27 28 30 30 30 38 39 37 36 37 37 37 38 39
29 29 29 31 30 29 28 28 28 27 28 32 28 37 39 37 36 35 35 36 38 40
30 30 30 31 29 29 28 28 27 27 28 28 32 32 38 38 36 35 35 35 36 37
Lifted_Index
8 8 9 10 10 11 12 13 14 15 17 18 19 19 19 19 19 19 19 19 19 19
8 8 9 9 10 11 12 13 14 15 17 18 19 19 19 19 19 19 19 19 19 19
7 8 8 9 10 11 12 13 14 15 17 18 18 19 19 19 19 19 19 19 19 19
7 7 8 9 10 11 12 13 13 15 16 18 18 19 19 19 19 19 19 19 19 19
7 7 8 8 10 11 12 13 13 15 16 18 18 18 19 19 19 19 19 19 19 19
6 7 7 8 9 11 12 12 13 15 16 17 18 18 19 19 19 19 19 19 18 18
6 6 7 8 9 10 12 12 13 15 16 17 18 18 19 19 19 19 19 18 18 17
6 6 6 7 9 10 12 12 13 15 16 17 18 18 18 18 18 18 18 18 17 17
6 6 6 7 8 10 11 12 13 14 16 16 17 18 18 18 18 17 17 17 17 17
5 6 6 7 8 10 11 12 13 14 15 16 17 17 17 17 17 17 17 17 17 17
5 5 6 7 8 10 11 12 13 14 15 16 17 17 17 17 17 17 17 17 18 18
5 5 6 6 8 9 11 12 13 14 15 16 17 17 17 16 17 17 17 17 17 17
5 5 6 6 8 9 11 12 13 14 16 17 17 17 17 16 17 17 17 17 17 17
5 5 6 7 8 10 11 12 14 15 16 17 17 17 17 17 17 17 17 17 17 17